This demonstration page uses our WeatherBlox Daily Observations layout. Learn more.

Hourly Observations for November 15, 2016

Temp ( °F °C ) Dew Point ( °F °C ) Humidity (%) Winds ( mph kmh ) Pressure ( in mb ) Visibility ( mi km ) Precip ( " mm )
12:54 am 00:54 Clear 37 2.8 34 1.1 89 89 Calm 30 1016 10 16.0934 0 0
1:54 am 01:54 Clear 34 1.1 32 0 92 92 Calm 29.98 1015 10 16.0934 0 0
2:54 am 02:54 Clear 34 1.1 31 -0.6 89 89 Calm 29.98 1015 10 16.0934 0 0
3:54 am 03:54 Clear 32 0 30 -1.1 92 92 N 3 6 29.98 1015 10 16.0934 0 0
4:54 am 04:54 Clear 34 1.1 31 -0.6 89 89 Calm 29.98 1015 10 16.0934 0 0
5:54 am 05:54 Clear 35 1.7 32 0 89 89 Calm 29.99 1016 10 16.0934 0 0
6:54 am 06:54 Clear 34 1.1 32 0 92 92 Calm 29.99 1016 10 16.0934 0 0
7:54 am 07:54 Sunny 38 3.3 32 0 79 79 Calm 29.99 1016 10 16.0934 0 0
8:54 am 08:54 Sunny 44 6.7 40 4.4 85 85 S 6 9 29.98 1015 10 16.0934 0 0
9:54 am 09:54 Sunny 52 11.1 42 5.6 69 69 SW 3 6 29.97 1015 10 16.0934 0 0
10:54 am 10:54 Sunny 61 16.1 44 6.7 54 54 SW 7 11 29.95 1014 10 16.0934 0 0
11:54 am 11:54 Sunny 68 20 40 4.4 36 36 W 12 19 29.95 1014 10 16.0934 0 0
12:54 pm 12:54 Sunny 72 22.2 39 3.9 30 30 W 6 9 29.91 1013 10 16.0934 0 0
1:54 pm 13:54 Sunny 73 22.8 37 2.8 27 27 NNW 12 19 29.92 1013 10 16.0934 0 0
2:54 pm 14:54 Sunny 74 23.3 37 2.8 26 26 N 15 24 29.93 1013 10 16.0934 0 0
3:54 pm 15:54 Sunny 71 21.7 39 3.9 31 31 N 12 19 29.93 1014 10 16.0934 0 0
4:54 pm 16:54 Sunny 61 16.1 40 4.4 46 46 NNE 7 11 29.95 1014 10 16.0934 0 0
5:54 pm 17:54 Clear 55 12.8 38 3.3 53 53 Calm 29.98 1015 10 16.0934 0 0
6:54 pm 18:54 Clear 53 11.7 37 2.8 55 55 NW 3 6 29.99 1016 8 12.87472 0 0
7:54 pm 19:54 Clear 44 6.7 36 2.2 73 73 Calm 30 1016 10 16.0934 0 0
8:54 pm 20:54 Clear 46 7.8 37 2.8 71 71 NW 5 7 30 1016 7 11.26538 0 0
9:54 pm 21:54 Clear 41 5 35 1.7 79 79 Calm 29.99 1016 9 14.48406 0 0
10:54 pm 22:54 Clear 42 5.6 35 1.7 76 76 NW 3 6 29.99 1016 10 16.0934 0 0
11:54 pm 23:54 Clear 41 5 35 1.7 79 79 NNW 5 7 29.98 1015 10 16.0934 0 0

Powered by AerisWeather